Location: Espoey
(43.2500°N, 0.1667°W)
Time: 17:35:30
(UTC+00:00)

Daily predictions for brighter satellites

Satellite Brightness Start Highest point End
(mag) Time Altitude Azimuth Time Altitude Azimuth Time Altitude Azimuth
Terra 4.1 20:14:20 10° ENE 20:14:52 10° ENE 20:15:24 10° NE
Meteor 2-10 4.0 20:10:48 10° N 20:15:52 75° E 20:21:01 10° SSE
Cosmos 1726 2.4 20:15:28 10° N 20:19:01 49° E 20:22:33 10° SSE
Lacrosse 5 2.0 20:14:21 10° NW 20:19:25 71° NE 20:24:29 10° SE
Cosmos 1315 Rocket 3.2 20:17:32 10° N 20:21:35 50° ENE 20:25:34 10° SSE
Cosmos 1452 Rocket 3.9 20:19:31 10° S 20:24:28 43° ESE 20:29:27 10° NNE
Cosmos 1844 Rocket 4.1 20:20:45 10° N 20:25:28 26° NE 20:30:11 10° ESE
Cosmos 2056 Rocket 4.3 20:24:40 10° SSW 20:29:48 59° WNW 20:35:02 10° NNE
NOSS 3-2 (A) 4.4 20:25:19 10° WSW 20:30:46 52° NW 20:37:05 10° NNE
NOSS 3-2 (C) 3.5 20:26:18 10° SW 20:31:51 82° NW 20:38:17 10° NE
Cosmos 1934 Rocket 4.4 20:26:13 10° NNW 20:32:16 65° W 20:38:21 10° S
ARIANE 5 R/B 4.0 20:29:26 10° ESE 20:33:03 25° ENE 20:36:42 10° NNE
FALCON 9 DEB 3.4 20:32:29 10° SSW 20:35:46 44° SE 20:39:02 10° ENE
ATLAS 3B R/B 3.8 20:31:50 10° SSE 20:36:27 21° ESE 20:41:09 10° ENE
SPOT 1/Viking Rocket 3.9 20:33:57 10° SE 20:38:54 51° ENE 20:43:53 10° N
Cosmos 2263 Rocket 2.7 20:33:34 10° NNW 20:39:11 61° WSW 20:44:46 10° S
Cosmos 1758 3.4 20:36:43 10° N 20:40:40 61° E 20:44:33 10° SSE
Landsat 7 3.8 20:37:18 10° SSE 20:42:02 80° ENE 20:46:50 10° N
Spot 2 Rocket 4.2 20:40:28 11° SE 20:44:56 40° ENE 20:49:40 10° N
Cosmos 1707 2.7 20:41:45 10° S 20:45:37 87° E 20:49:31 10° N
Okean 2 3.9 20:42:13 10° SSW 20:46:16 61° W 20:50:19 10° N
Lacrosse 5 rocket 2.0 20:43:17 10° S 20:46:26 26° SE 20:49:31 10° ENE
CZ-2C R/B 3.9 20:41:56 10° NNE 20:46:40 58° E 20:51:21 10° S
Okean 1 Rocket 3.3 20:43:58 10° NNW 20:48:19 71° W 20:52:41 10° S
In-Cosmos 22 4.1 20:43:18 10° S 20:48:30 61° E 20:53:42 10° NNE
ERS-1 Rocket 4.1 20:44:31 12° SE 20:48:32 30° ENE 20:52:54 10° N
Cosmos 1455 Rocket 3.8 20:46:16 10° N 20:50:26 38° ENE 20:53:47 15° SE
MetOp-B 4.1 20:49:00 10° SSE 20:54:21 84° ENE 20:59:44 10° NNW
Meteor 2-20 Rocket 4.4 20:50:06 10° S 20:56:11 72° E 21:02:16 10° NNE
BREEZE-M DEB (TANK) 1.8 20:56:24 10° SSW 20:58:33 35° SE 21:01:42 10° ENE
Cosmos 2333 Rocket 3.3 20:55:53 14° SSE 20:59:31 24° ESE 21:04:02 10° NE
Cosmos 1727 Rocket 4.0 20:53:37 10° S 20:59:56 83° E 21:06:15 10° N
USA 215 4.2 20:58:24 10° ENE 21:03:28 23° SE 21:08:29 10° S
Cosmos 1626 3.0 21:04:14 19° SE 21:06:09 30° E 21:09:26 10° NNE
SPOT 3 Rocket 4.0 21:01:33 10° S 21:06:39 62° WSW 21:11:49 10° NNW
Cosmos 1953 2.6 21:03:42 10° N 21:07:42 52° E 21:10:22 19° SSE
Cosmos 1741 Rocket 4.1 21:03:06 10° NNW 21:08:22 72° ENE 21:12:22 18° SSE
Cosmos 2219 Rocket 3.3 21:07:37 17° SE 21:10:36 25° ESE 21:15:09 10° NE
Cosmos 1844 4.2 21:07:23 10° NNW 21:12:45 46° ENE 21:16:41 18° SE
CENTAUR R/B 4.0 21:09:52 10° WSW 21:15:33 42° NW 21:22:18 10° NNE
Cosmos 1802 Rocket 4.3 21:13:01 10° N 21:19:10 55° ENE 21:23:39 19° SSE
KORONAS-FOTON 3.8 21:21:44 12° SSW 21:25:09 78° W 21:28:58 10° N
Cosmos 1025 Rocket 3.1 21:22:43 19° S 21:25:40 59° E 21:29:59 10° NNE
CARTOSAT-1 3.6 21:27:34 21° S 21:30:27 81° WSW 21:34:48 10° NNW
Aureole 1 Rocket 4.2 21:24:35 10° NNW 21:30:33 78° ENE 21:35:49 21° SSE
Resurs 01 Rocket 3.5 21:28:17 10° SSW 21:31:55 25° W 21:35:35 10° NW
Cosmos 2360 Rocket 2.2 21:27:01 10° SSW 21:32:40 84° WNW 21:38:21 10° NNE
SL-16 R/B 3.6 21:27:28 10° SW 21:32:46 40° WNW 21:38:07 10° NNE
Cosmos 1459 Rocket 3.9 21:27:23 10° N 21:33:29 86° E 21:37:54 20° S
USA 245 4.5 21:30:06 15° S 21:33:52 57° W 21:39:24 10° NNW
Cosmos 1461 2.8 21:29:54 10° NNW 21:34:08 83° NE 21:36:05 29° SE
Cosmos 2322 Rocket 3.2 21:29:16 10° SW 21:34:47 49° WNW 21:40:20 10° NNE
Cosmos 1975 Rocket 3.8 21:35:20 10° SSW 21:39:33 50° WNW 21:43:51 10° N
Cosmos 1674 3.5 21:38:15 11° SSW 21:41:41 46° WNW 21:45:16 10° N
Cosmos 1110 Rocket 4.1 21:38:07 10° SSW 21:43:17 78° WNW 21:48:31 10° NNE
SPOT 5 3.0 21:41:32 24° SSE 21:44:46 86° W 21:49:44 10° NNW
Meteor 1-16 Rocket 4.4 21:40:03 10° NNW 21:45:27 63° W 21:49:13 19° S
ATLAS CENTAUR R/B 2.3 21:41:52 10° NNW 21:46:02 44° NE 21:48:22 24° ESE
Meteor 2-11 Rocket 4.4 21:40:26 10° N 21:46:34 84° W 21:50:42 22° S
Cosmos 968 Rocket 4.4 21:46:16 10° N 21:50:57 35° ENE 21:53:28 22° ESE
COSMOS 2428 3.1 21:48:21 26° SSE 21:51:10 44° ESE 21:56:36 10° NE
Terra 1.8 21:49:22 29° SSE 21:51:47 80° ENE 21:56:34 10° N
Cosmos 2322 3.6 21:48:35 17° S 21:52:55 67° ESE 21:58:33 10° NNE
FALCON 9 DEB 4.3 21:54:51 25° ENE 21:54:51 25° ENE 21:56:27 10° ENE
Cosmos 1300 3.0 21:49:46 10° N 21:53:29 50° ENE 21:54:30 38° SE
Cosmos 2061 Rocket 4.0 21:48:54 10° N 21:55:22 81° E 21:59:13 26° SSE
Cosmos 1864 Rocket 4.4 21:51:04 10° N 21:57:18 80° E 22:00:48 27° SSE
SL-24 R/B 4.4 21:54:42 10° NNE 21:59:30 60° E 22:01:30 33° SSE
Cosmos 2278 Rocket 3.7 21:55:45 10° N 22:00:27 26° NE 22:04:01 15° E
Cosmos 405 2.8 21:57:42 10° N 22:01:08 75° ENE 22:01:49 54° SSE
Lacrosse 5 3.6 21:58:11 10° WNW 22:01:56 21° WSW 22:04:03 16° SSW
Cosmos 2123 Rocket 4.0 21:59:12 20° S 22:03:47 87° W 22:10:09 10° N
Cosmos 1340 2.9 22:06:52 32° SSW 22:08:28 67° W 22:12:15 10° N
SL-8 R/B 3.6 22:04:10 10° WNW 22:08:59 81° SSW 22:10:57 35° SE
ARIANE 5 R/B 3.9 22:06:43 18° SSW 22:09:20 33° W 22:13:24 10° NNW
Cosmos 1844 Rocket 3.2 22:04:10 10° NNW 22:09:41 53° WSW 22:12:33 27° S
Cosmos 1346 Rocket 3.5 22:11:16 35° ESE 22:11:36 36° E 22:15:18 10° NNE
FALCON 9 DEB 2.9 22:11:12 12° WSW 22:13:59 74° NW 22:17:05 10° NE
Cosmos 2233 Rocket 4.0 22:08:16 10° N 22:14:24 68° E 22:17:17 33° SSE
H-2A R/B 3.4 22:10:20 10° N 22:14:26 78° WNW 22:16:09 34° SSW
FALCON 9 DEB 2.8 22:18:01 75° NE 22:18:01 75° NE 22:20:54 10° NE
Meteor 2-5 Rocket 3.7 22:18:54 28° SSW 22:21:59 84° W 22:27:36 10° N
FALCON 9 DEB 3.2 22:21:32 21° WSW 22:23:27 64° NNW 22:26:33 10° NE
Lacrosse 5 rocket 2.6 22:21:59 10° WSW 22:25:24 36° NW 22:28:46 10° NNE
ATLAS 3B R/B 2.7 22:19:49 10° SW 22:26:21 77° NW 22:33:08 10° NE
ERS-1 Rocket 4.2 22:24:30 20° SSW 22:27:13 34° W 22:31:49 10° NNW
Cosmos 1606 Rocket 4.1 22:24:00 10° N 22:28:19 46° ENE 22:29:16 40° ESE
Cosmos 1892 Rocket 4.5 22:29:33 31° E 22:29:55 32° E 22:33:52 10° NNE
ALOS 2 4.2 22:32:40 21° E 22:33:54 24° ENE 22:37:26 10° NNE
Cosmos 1980 4.2 22:35:59 37° SE 22:37:03 41° ESE 22:42:21 10° NE
Spot 4 4.3 22:39:08 39° ESE 22:40:28 50° ENE 22:45:05 10° N
Cosmos 2333 Rocket 2.9 22:37:49 10° SW 22:43:25 52° WNW 22:49:01 10° NNE
USA 215 3.2 22:40:27 10° NE 22:47:02 86° SE 22:53:35 10° SW
Meteor 2-10 Rocket 3.4 22:48:23 10° NNW 22:53:28 75° W 22:54:49 48° SSW
Cosmos 2219 Rocket 3.0 22:49:15 13° SW 22:54:12 49° WNW 22:59:44 10° NNE
Cosmos 1464 Rocket 4.3 22:53:28 10° N 22:59:44 57° ENE 23:02:03 38° SE
Cosmos 1867 3.5 22:54:42 10° NNW 23:00:13 87° NE 23:01:49 48° SE
Cosmos 1607 4.4 22:55:32 10° NNW 23:01:52 56° NE 23:05:04 28° ESE
Cosmos 389 Rocket 2.9 23:00:57 10° NNW 23:04:01 54° WNW 23:04:01 54° WNW
Iridium 2 3.6 23:05:20 80° W 23:05:20 80° W 23:09:06 10° N
COBE Rocket 4.1 23:04:31 49° SE 23:05:44 66° ENE 23:10:40 10° N
SL-16 R/B 3.5 23:06:18 23° ESE 23:06:33 23° E 23:10:53 10° NE
Cosmos 2237 Rocket 2.1 23:09:08 49° S 23:10:35 71° ESE 23:16:12 10° NNE
Cosmos 2228 3.6 23:08:52 10° NNW 23:13:05 46° W 23:13:45 42° WSW
Meteor 1-4 Rocket 4.3 23:14:08 10° NNE 23:16:45 23° ENE 23:16:45 23° ENE
USA 267 3.5 23:14:47 18° ESE 23:19:45 66° NE 23:26:14 10° NW
Cosmos 1455 2.2 23:16:57 10° NNW 23:20:36 72° WNW 23:20:36 72° WNW
Cosmos 1184 Rocket 3.6 23:22:45 49° N 23:22:45 49° N 23:25:14 10° N
Cosmos 1486 Rocket 4.5 23:19:36 10° NNW 23:24:36 47° WSW 23:25:31 42° SW
ATLAS CENTAUR R/B 3.1 23:21:13 10° WNW 23:24:30 23° WSW 23:24:30 23° WSW
Okean 1-7 Rocket 3.4 23:27:36 72° SE 23:27:55 77° E 23:32:22 10° N
Terra 4.3 23:28:40 10° WSW 23:30:06 11° W 23:31:32 10° WNW
Cosmos 2034 Rocket 4.0 23:27:39 10° N 23:33:51 73° E 23:35:44 46° SSE
Meteor 1-21 Rocket 4.1 23:33:20 52° SSW 23:34:48 88° W 23:40:32 10° N
COSMOS 2428 4.3 23:30:33 10° WSW 23:35:35 31° NW 23:40:39 10° N
Cosmos 1354 Rocket 4.0 23:33:10 10° NNW 23:38:31 74° WSW 23:39:29 58° S
Cosmos 192 4.3 23:38:55 57° SW 23:39:53 77° WNW 23:44:50 10° NNE
Cosmos 2058 Rocket 3.3 23:39:57 10° NNW 23:44:19 56° W 23:44:34 55° WSW
Cosmos 1812 Rocket 4.3 23:40:42 10° N 23:44:49 40° ENE 23:45:17 38° E
Cosmos 2278 Rocket 2.4 23:39:20 10° NNW 23:44:51 53° WSW 23:45:51 47° SW
GEOS 3 Rocket 4.3 23:52:23 39° SW 23:52:42 39° WSW 23:57:42 10° NW
